Flag for U.S.A. Weather past 2 weeks in Jersey City, New Jersey, U.S.A.

Now
53 °F

Mostly cloudy.


Feels Like: 53 °F
Forecast: 53 / 67 °F
Wind: 3 mph from Northeast

Location: Newark International Airport

Current Time: Oct 21, 2014 at 7:39:10 AM

Latest Report: Oct 21, 2014 at 6:51 AM


Visibility: 10 mi

Pressure: 29.89 "Hg

Humidity: 72%

Dew point: 44 °F

Location of Jersey CityLocation

Historic Weather in Jersey City — Graph

°F

Jersey City temperature yesterday

Maximum temperature yesterday: 62 °F (at 3:51 PM)
Minimum temperature yesterday: 40 °F (at 3:51 AM)
Average temperature yesterday: 51 °F

Past Weeks' High & Low Weather Summary

 TemperatureHumidityPressure
High77 °F (Oct 14, 12:51 PM)97% (Oct 11, 8:51 AM)30.34 "Hg (Oct 11, 8:51 AM)
Low40 °F (Oct 20, 3:51 AM)28% (Oct 9, 2:51 PM)29.57 "Hg (Oct 18, 1:51 PM)
Average61 °F67%29.98 "Hg
* Reported Oct 6 5:51 AM — Oct 21 5:51 AM, Jersey City, Weather by CustomWeather, © 2014

Note: Actual official high and low records may vary slightly from our data, if they occured in-between our weather recording intervals... More about our weather records

Advertising

Jersey City weather history for previous 24 hours

 ConditionsComfort  
Time TempWeatherWind HumidityBarometerVisibility
5:51 AM
Oct 21
55 °FOvercast.No wind69%29.90 "Hg10 mi
4:51 AM54 °FOvercast.No wind72%29.90 "Hg10 mi
3:51 AM54 °FMostly cloudy.No wind72%29.91 "Hg10 mi
2:51 AM54 °FMostly cloudy.No wind72%29.92 "Hg10 mi
1:51 AM53 °FMostly cloudy.No wind72%29.94 "Hg10 mi
12:51 AM54 °FPassing clouds.No wind69%29.96 "Hg10 mi
11:51 PM
Oct 20
54 °FMostly cloudy.7 mph72%29.97 "Hg10 mi
10:51 PM56 °FPassing clouds.8 mph67%29.97 "Hg10 mi
9:51 PM55 °FPartly cloudy.No wind62%29.98 "Hg10 mi
8:51 PM56 °FPassing clouds.5 mph60%29.98 "Hg10 mi
7:51 PM56 °FPartly cloudy.5 mph53%29.98 "Hg10 mi
6:51 PM56 °FBroken clouds.8 mph49%29.97 "Hg10 mi
5:51 PM60 °FBroken clouds.12 mph44%29.97 "Hg10 mi
4:51 PM61 °FBroken clouds.10 mph41%29.98 "Hg10 mi
3:51 PM62 °FPartly sunny.12 mph39%29.98 "Hg10 mi
2:51 PM60 °FBroken clouds.10 mph39%30.01 "Hg10 mi
1:51 PM59 °FBroken clouds.7 mph41%30.03 "Hg10 mi
12:51 PM57 °FBroken clouds.10 mph46%30.07 "Hg10 mi
11:51 AM55 °FBroken clouds.9 mph44%30.09 "Hg10 mi
10:51 AM51 °FPartly sunny.6 mph50%30.12 "Hg10 mi
9:51 AM46 °FPartly sunny.7 mph56%30.13 "Hg10 mi
8:51 AM44 °FPartly sunny.7 mph60%30.13 "Hg10 mi
7:51 AM41 °FPassing clouds.8 mph67%30.11 "Hg10 mi
Weather by CustomWeather, © 2014

See weather overviewHow to use our weather pages